York — 9VED8 — position and weather

sailwx.info

Track history (hours):
 
Tides and Currents Weather Stations Pressure Air Temp Water Temp Dewpoint Dewpoint Depression Visibility Wind Speed Wind Dir Waves Ship Positions

York

Last reported at 2014-Jul-23 14:33 UTC. Time now 2014-Jul-23 21:48 UTC.
Position N 44°15' E 035°14'.

Length 100 m; draft 5.6 m.

Type: Tanker. MMSI: 565525000.

Date/timePositionNaut miles runAvg speedWind from/ knotsBaromVisibWave heightAir tempDewpointWater temp
2014-Jul-23 14:33N 44°15' E 035°14'1413.6
2014-Jul-23 13:33N 44°23' E 035°30'1413.3
2014-Jul-23 12:29N 44°30' E 035°47'1213.1
2014-Jul-23 11:33N 44°37' E 036°01'  
2014-Jul-20 21:29N 44°21' E 035°30'  
2014-Jul-14 22:34N 43°53' E 034°27'1313.5
2014-Jul-14 21:34N 44°01' E 034°42'1413.8
2014-Jul-14 20:33N 44°08' E 034°59'1413.7
2014-Jul-14 19:33N 44°16' E 035°15'1413.7
2014-Jul-14 18:33N 44°23' E 035°31'1413.6
2014-Jul-14 17:33N 44°31' E 035°47'1313.3
2014-Jul-14 16:33N 44°38' E 036°02'  
Track history (hours):
 
Tides and Currents Weather Stations Pressure Air Temp Water Temp Dewpoint Dewpoint Depression Visibility Wind Speed Wind Dir Waves Ship Positions

York

Last reported at 2014-Jul-23 14:33 UTC. Time now 2014-Jul-23 21:48 UTC.
Position N 44°15' E 035°14'.

Length 100 m; draft 5.6 m.

Type: Tanker. MMSI: 565525000.

Date/timePositionNaut miles runAvg speedWind from/ knotsBaromVisibWave heightAir tempDewpointWater temp
2014-Jul-23 14:33N 44°15' E 035°14'1413.6
2014-Jul-23 13:33N 44°23' E 035°30'1413.3
2014-Jul-23 12:29N 44°30' E 035°47'1213.1
2014-Jul-23 11:33N 44°37' E 036°01'  
2014-Jul-20 21:29N 44°21' E 035°30'  
2014-Jul-14 22:34N 43°53' E 034°27'1313.5
2014-Jul-14 21:34N 44°01' E 034°42'1413.8
2014-Jul-14 20:33N 44°08' E 034°59'1413.7
2014-Jul-14 19:33N 44°16' E 035°15'1413.7
2014-Jul-14 18:33N 44°23' E 035°31'1413.6
2014-Jul-14 17:33N 44°31' E 035°47'1313.3
2014-Jul-14 16:33N 44°38' E 036°02'  

Dump ship's entire track history